Overview Statistics Trail Chart Weather Telemetry Raw packets
 

This is the latest recevied weather packets stored in our database for station/object KC5TIL. If no packets are shown the sender has not sent any weather packets the latest 10 day(s).

<< 17 18 19 20 21 22 23 >>
Time Temp. Humidity Pressure Rain* Wind** Luminosity Snow
1788491926 27.78° C 73% 1014.4 hPa 0 mm - 0 W/m² -
1788491622 27.78° C 73% 1014.3 hPa 0 mm - 0 W/m² -
1788491318 28.33° C 73% 1014.4 hPa 0 mm - 0 W/m² -
1788491013 28.33° C 73% 1014.2 hPa 0 mm - 0 W/m² -
1788490709 28.33° C 73% 1014.2 hPa 0 mm - 0 W/m² -
1788490405 28.33° C 74% 1014.2 hPa 0 mm - 0 W/m² -
1788490104 28.33° C 73% 1014.1 hPa 0 mm - 0 W/m² -
1788489799 28.33° C 73% 1014 hPa 0 mm - 0 W/m² -
1788489499 28.89° C 74% 1014.1 hPa 0 mm - 0 W/m² -
1788489192 28.89° C 74% 1014 hPa 0 mm - 0 W/m² -
1788488891 28.89° C 74% 1013.9 hPa 0 mm - 0 W/m² -
1788488588 28.89° C 74% 1013.7 hPa 0 mm - 0 W/m² -
1788488285 28.89° C 76% 1013.6 hPa 0 mm - 0 W/m² -
1788487979 28.89° C 76% 1013.6 hPa 0 mm - 0 W/m² -
1788487674 28.89° C 75% 1013.3 hPa 0 mm - 0 W/m² -
1788487375 28.89° C 74% 1013.2 hPa 0 mm - 0 W/m² -
1788487073 28.89° C 75% 1013.1 hPa 0 mm - 0 W/m² -
1788486768 29.44° C 74% 1013.2 hPa 0 mm - 0 W/m² -
1788486467 29.44° C 71% 1013 hPa 0 mm - 0 W/m² -
1788486162 29.44° C 68% 1012.8 hPa 0 mm - 0 W/m² -
1788485858 29.44° C 67% 1012.6 hPa 0 mm - 0 W/m² -
1788485554 30° C 65% 1012.7 hPa 0 mm - 0 W/m² -
1788485250 30° C 65% 1012.4 hPa 0 mm - 0 W/m² -
1788484949 30° C 64% 1012.5 hPa 0 mm - 0 W/m² -
1788484648 30° C 63% 1012.4 hPa 0 mm - 0 W/m² -

* Rain latest hour (hover to see other rain measurements)
** Current wind speed in m/s (hover to see current wind gust speed)